Time,TemperatureF,DewpointF,PressureIn,WindDirection,WindDirectionDegrees,WindSpeedMPH,WindSpeedGustMPH,Humidity,HourlyPrecipIn,Conditions,Clouds,dailyrainin,SoftwareType,DateUTC
2014-09-18 00:03:00,46.4,46.2,30.00,NNE,22,0.0,0.0,99,0.00,,,0.00,meteobridge,2014-09-18 04:03:00,
2014-09-18 00:08:00,46.4,46.2,30.00,NNE,22,0.0,0.0,99,0.00,,,0.00,meteobridge,2014-09-18 04:08:00,
2014-09-18 00:14:00,46.6,46.4,30.00,NNE,22,0.0,0.0,99,0.00,,,0.00,meteobridge,2014-09-18 04:14:00,
2014-09-18 00:19:00,46.6,46.4,30.01,NNE,22,0.0,0.0,99,0.00,,,0.00,meteobridge,2014-09-18 04:19:00,
2014-09-18 00:24:00,46.6,46.4,30.00,NNE,22,0.0,0.0,99,0.00,,,0.00,meteobridge,2014-09-18 04:24:00,
2014-09-18 00:29:00,45.9,45.7,30.00,NNE,22,0.0,0.0,99,0.00,,,0.00,meteobridge,2014-09-18 04:29:00,
2014-09-18 00:35:00,45.9,45.7,30.00,NNE,22,0.0,0.0,99,0.00,,,0.00,meteobridge,2014-09-18 04:35:00,
2014-09-18 00:40:00,45.7,45.5,30.00,NNE,22,0.0,0.0,99,0.00,,,0.00,meteobridge,2014-09-18 04:40:00,
2014-09-18 00:45:00,45.7,45.5,30.00,NNE,22,0.0,0.0,99,0.00,,,0.00,meteobridge,2014-09-18 04:45:00,
2014-09-18 00:51:00,45.7,45.5,30.00,NNE,22,0.0,0.0,99,0.00,,,0.00,meteobridge,2014-09-18 04:51:00,
2014-09-18 00:56:00,45.7,45.5,30.00,NNE,22,0.0,0.0,99,0.00,,,0.00,meteobridge,2014-09-18 04:56:00,
2014-09-18 01:01:00,45.5,45.3,30.00,NNE,22,0.0,0.0,99,0.00,,,0.00,meteobridge,2014-09-18 05:01:00,
2014-09-18 01:03:00,45.7,45.5,29.99,NNE,22,0.0,0.0,99,0.00,,,0.00,meteobridge,2014-09-18 05:03:00,
2014-09-18 01:08:00,45.5,45.3,30.01,NNE,22,0.0,0.0,99,0.00,,,0.00,meteobridge,2014-09-18 05:08:00,
2014-09-18 01:13:00,45.5,45.3,30.00,NNE,22,0.0,0.0,99,0.00,,,0.00,meteobridge,2014-09-18 05:13:00,
2014-09-18 01:18:00,45.1,45.0,30.01,NNE,22,0.0,0.0,99,0.00,,,0.00,meteobridge,2014-09-18 05:18:00,
2014-09-18 01:24:00,45.1,45.0,30.00,NNE,22,0.0,0.0,99,0.00,,,0.00,meteobridge,2014-09-18 05:24:00,
2014-09-18 01:29:00,45.0,44.8,30.01,NNE,22,0.0,0.0,99,0.00,,,0.00,meteobridge,2014-09-18 05:29:00,
2014-09-18 01:34:00,45.0,44.8,30.00,NNE,22,0.0,0.0,99,0.00,,,0.00,meteobridge,2014-09-18 05:34:00,
2014-09-18 01:40:00,45.0,44.8,30.00,NNE,22,0.0,0.0,99,0.00,,,0.00,meteobridge,2014-09-18 05:40:00,
2014-09-18 01:45:00,45.0,44.8,30.00,NNE,22,0.0,0.0,99,0.00,,,0.00,meteobridge,2014-09-18 05:45:00,
2014-09-18 01:50:00,44.8,44.6,30.00,NNE,22,0.0,0.0,99,0.00,,,0.00,meteobridge,2014-09-18 05:50:00,
2014-09-18 01:55:00,44.8,44.6,30.00,NNE,22,0.0,0.0,99,0.00,,,0.00,meteobridge,2014-09-18 05:55:00,
2014-09-18 02:01:00,44.8,44.6,30.01,NNE,22,0.0,0.0,99,0.00,,,0.00,meteobridge,2014-09-18 06:01:00,
2014-09-18 02:06:00,44.6,44.4,30.00,NNE,22,0.0,0.0,99,0.00,,,0.00,meteobridge,2014-09-18 06:06:00,
2014-09-18 02:11:00,44.6,44.4,30.01,NNE,22,0.0,0.0,99,0.00,,,0.00,meteobridge,2014-09-18 06:11:00,
2014-09-18 02:17:00,44.2,44.1,30.00,NNE,22,0.0,0.0,99,0.00,,,0.00,meteobridge,2014-09-18 06:17:00,
2014-09-18 02:22:00,44.1,43.9,30.01,NNE,22,0.0,0.0,99,0.00,,,0.00,meteobridge,2014-09-18 06:22:00,
2014-09-18 02:27:00,44.1,43.9,30.01,NNE,22,0.0,0.0,99,0.00,,,0.00,meteobridge,2014-09-18 06:27:00,
2014-09-18 02:32:00,43.9,43.7,30.01,NNE,22,0.0,0.0,99,0.00,,,0.00,meteobridge,2014-09-18 06:32:00,
2014-09-18 02:38:00,43.9,43.7,30.01,NNE,22,0.0,0.0,99,0.00,,,0.00,meteobridge,2014-09-18 06:38:00,
2014-09-18 02:43:00,43.9,43.7,30.01,NNE,22,0.0,0.0,99,0.00,,,0.00,meteobridge,2014-09-18 06:43:00,
2014-09-18 02:48:00,44.1,43.9,30.02,NNE,22,0.0,0.0,99,0.00,,,0.00,meteobridge,2014-09-18 06:48:00,
2014-09-18 02:53:00,44.2,44.1,30.02,NNE,22,0.0,0.0,99,0.00,,,0.00,meteobridge,2014-09-18 06:53:00,
2014-09-18 02:58:00,43.9,43.7,30.01,NNE,22,0.0,0.0,99,0.00,,,0.00,meteobridge,2014-09-18 06:58:00,
2014-09-18 03:03:00,44.6,44.4,30.01,NNE,22,0.0,0.0,99,0.00,,,0.00,meteobridge,2014-09-18 07:03:00,
2014-09-18 03:08:00,43.9,43.7,30.02,NNE,22,0.0,0.0,99,0.00,,,0.00,meteobridge,2014-09-18 07:08:00,
2014-09-18 03:13:00,43.7,43.5,30.01,NNE,22,0.0,0.0,99,0.00,,,0.00,meteobridge,2014-09-18 07:13:00,
2014-09-18 03:19:00,43.2,43.0,30.02,NNE,22,0.0,0.0,99,0.00,,,0.00,meteobridge,2014-09-18 07:19:00,
2014-09-18 03:24:00,43.2,43.0,30.01,NNE,22,0.0,0.0,99,0.00,,,0.00,meteobridge,2014-09-18 07:24:00,
2014-09-18 03:29:00,43.2,43.0,30.02,NNE,22,0.0,0.0,99,0.00,,,0.00,meteobridge,2014-09-18 07:29:00,
2014-09-18 03:34:00,43.2,43.0,30.01,NNE,22,0.0,0.0,99,0.00,,,0.00,meteobridge,2014-09-18 07:34:00,
2014-09-18 03:39:00,43.2,43.0,30.03,NNE,22,0.0,0.0,99,0.00,,,0.00,meteobridge,2014-09-18 07:39:00,
2014-09-18 03:44:00,43.2,43.0,30.02,NNE,22,0.0,0.0,99,0.00,,,0.00,meteobridge,2014-09-18 07:44:00,
2014-09-18 03:49:00,43.2,43.0,30.02,NNE,22,0.0,0.0,99,0.00,,,0.00,meteobridge,2014-09-18 07:49:00,
2014-09-18 03:54:00,43.2,43.0,30.02,NNE,22,0.0,0.0,99,0.00,,,0.00,meteobridge,2014-09-18 07:54:00,
2014-09-18 03:57:00,43.2,43.0,30.02,NNE,22,0.0,0.0,99,0.00,,,0.00,meteobridge,2014-09-18 07:57:00,
2014-09-18 04:02:00,43.2,43.0,30.02,NNE,22,0.0,0.0,99,0.00,,,0.00,meteobridge,2014-09-18 08:02:00,
2014-09-18 04:08:00,43.2,43.0,30.03,NNE,22,0.0,0.0,99,0.00,,,0.00,meteobridge,2014-09-18 08:08:00,
2014-09-18 04:13:00,43.3,43.2,30.03,NNE,22,0.0,0.0,99,0.00,,,0.00,meteobridge,2014-09-18 08:13:00,
2014-09-18 04:18:00,43.2,43.0,30.03,NNE,22,0.0,0.0,99,0.00,,,0.00,meteobridge,2014-09-18 08:18:00,
2014-09-18 04:24:00,43.0,42.8,30.03,NNE,22,0.0,0.0,99,0.00,,,0.00,meteobridge,2014-09-18 08:24:00,
2014-09-18 04:29:00,43.2,43.0,30.03,NNE,22,0.0,0.0,99,0.00,,,0.00,meteobridge,2014-09-18 08:29:00,
2014-09-18 04:34:00,43.0,42.8,30.03,NNE,22,0.0,0.0,99,0.00,,,0.00,meteobridge,2014-09-18 08:34:00,
2014-09-18 04:39:00,43.0,42.8,30.03,NNE,22,0.0,0.0,99,0.00,,,0.00,meteobridge,2014-09-18 08:39:00,
2014-09-18 04:45:00,43.0,42.8,30.03,NNE,22,0.0,0.0,99,0.00,,,0.00,meteobridge,2014-09-18 08:45:00,
2014-09-18 04:50:00,43.2,43.0,30.04,NNE,22,0.0,0.0,99,0.00,,,0.00,meteobridge,2014-09-18 08:50:00,
2014-09-18 04:55:00,43.2,43.0,30.04,NNE,22,0.0,0.0,99,0.00,,,0.00,meteobridge,2014-09-18 08:55:00,
2014-09-18 05:01:00,43.0,42.8,30.04,NNE,22,0.0,0.0,99,0.00,,,0.00,meteobridge,2014-09-18 09:01:00,
2014-09-18 05:06:00,43.3,43.2,30.03,NNE,22,0.0,0.0,99,0.00,,,0.00,meteobridge,2014-09-18 09:06:00,
2014-09-18 05:11:00,43.2,43.0,30.04,NNE,22,0.0,0.0,99,0.00,,,0.00,meteobridge,2014-09-18 09:11:00,
2014-09-18 05:17:00,43.2,43.0,30.05,NNE,22,0.0,0.0,99,0.00,,,0.00,meteobridge,2014-09-18 09:17:00,
2014-09-18 05:22:00,43.3,43.2,30.05,NNE,22,0.0,0.0,99,0.00,,,0.00,meteobridge,2014-09-18 09:22:00,
2014-09-18 05:27:00,44.2,44.1,30.05,NW,315,0.0,1.1,99,0.00,,,0.00,meteobridge,2014-09-18 09:27:00,
2014-09-18 05:32:00,44.6,44.4,30.06,NW,315,0.0,0.0,99,0.00,,,0.00,meteobridge,2014-09-18 09:32:00,
2014-09-18 05:38:00,44.2,44.1,30.05,NW,315,0.0,0.0,99,0.00,,,0.00,meteobridge,2014-09-18 09:38:00,
2014-09-18 05:43:00,45.0,44.8,30.05,NW,315,0.0,0.0,99,0.00,,,0.00,meteobridge,2014-09-18 09:43:00,
2014-09-18 05:48:00,45.0,44.8,30.06,NW,315,0.0,1.1,99,0.00,,,0.00,meteobridge,2014-09-18 09:48:00,
2014-09-18 05:54:00,45.5,45.3,30.05,East,90,0.0,1.1,99,0.00,,,0.00,meteobridge,2014-09-18 09:54:00,
2014-09-18 05:59:00,45.5,45.3,30.06,West,270,0.0,1.1,99,0.00,,,0.00,meteobridge,2014-09-18 09:59:00,
2014-09-18 06:04:00,45.9,45.7,30.05,West,270,2.0,2.0,99,0.00,,,0.00,meteobridge,2014-09-18 10:04:00,
2014-09-18 06:09:00,46.4,46.2,30.05,WNW,292,0.0,0.0,99,0.00,,,0.00,meteobridge,2014-09-18 10:09:00,
2014-09-18 06:15:00,46.6,46.4,30.05,NNW,337,0.0,1.6,99,0.00,,,0.00,meteobridge,2014-09-18 10:15:00,
2014-09-18 06:20:00,46.6,46.4,30.05,West,270,0.0,0.0,99,0.00,,,0.00,meteobridge,2014-09-18 10:20:00,
2014-09-18 06:25:00,46.4,46.2,30.06,West,270,0.0,0.0,99,0.00,,,0.00,meteobridge,2014-09-18 10:25:00,
2014-09-18 06:28:00,46.4,46.2,30.06,West,270,0.0,0.0,99,0.00,,,0.00,meteobridge,2014-09-18 10:28:00,
2014-09-18 06:33:00,45.9,45.7,30.06,West,270,0.0,0.0,99,0.00,,,0.00,meteobridge,2014-09-18 10:33:00,
2014-09-18 06:38:00,45.9,45.7,30.07,West,270,0.0,0.0,99,0.00,,,0.00,meteobridge,2014-09-18 10:38:00,
2014-09-18 06:43:00,46.4,46.2,30.07,NW,315,0.0,1.1,99,0.00,,,0.00,meteobridge,2014-09-18 10:43:00,
2014-09-18 06:48:00,46.0,45.9,30.06,NW,315,0.0,0.0,99,0.00,,,0.00,meteobridge,2014-09-18 10:48:00,
2014-09-18 06:54:00,46.4,46.2,30.07,NNW,337,2.0,2.0,99,0.00,,,0.00,meteobridge,2014-09-18 10:54:00,
2014-09-18 06:59:00,46.8,46.6,30.07,NW,315,1.6,2.0,99,0.00,,,0.00,meteobridge,2014-09-18 10:59:00,
2014-09-18 07:04:00,47.5,47.3,30.08,NW,315,2.7,4.0,99,0.00,,,0.00,meteobridge,2014-09-18 11:04:00,
2014-09-18 07:10:00,47.8,47.7,30.08,West,270,1.1,3.6,99,0.00,,,0.00,meteobridge,2014-09-18 11:10:00,
2014-09-18 07:15:00,47.8,47.7,30.09,NE,45,2.0,3.6,99,0.00,,,0.00,meteobridge,2014-09-18 11:15:00,
2014-09-18 07:20:00,48.2,48.0,30.08,SSW,202,1.6,2.0,99,0.00,,,0.00,meteobridge,2014-09-18 11:20:00,
2014-09-18 07:26:00,48.4,48.2,30.08,ENE,67,0.0,4.0,99,0.00,,,0.00,meteobridge,2014-09-18 11:26:00,
2014-09-18 07:31:00,48.4,48.2,30.09,WNW,292,0.0,0.0,99,0.00,,,0.00,meteobridge,2014-09-18 11:31:00,
2014-09-18 07:36:00,48.4,48.2,30.10,WNW,292,0.0,1.6,99,0.00,,,0.00,meteobridge,2014-09-18 11:36:00,
2014-09-18 07:42:00,48.6,48.4,30.10,NE,45,0.0,2.0,99,0.00,,,0.00,meteobridge,2014-09-18 11:42:00,
2014-09-18 07:47:00,48.6,48.4,30.09,NE,45,0.0,2.0,99,0.00,,,0.00,meteobridge,2014-09-18 11:47:00,
2014-09-18 07:52:00,48.6,48.4,30.09,NW,315,0.0,0.0,99,0.00,,,0.00,meteobridge,2014-09-18 11:52:00,
2014-09-18 07:58:00,48.6,48.4,30.10,NNW,337,0.0,1.1,99,0.00,,,0.00,meteobridge,2014-09-18 11:58:00,
2014-09-18 08:03:00,48.6,48.4,30.10,WNW,292,1.6,3.6,99,0.00,,,0.00,meteobridge,2014-09-18 12:03:00,
2014-09-18 08:08:00,48.7,48.6,30.10,NW,315,1.1,3.1,99,0.00,,,0.00,meteobridge,2014-09-18 12:08:00,
2014-09-18 08:14:00,50.2,49.8,30.10,NNW,337,2.0,2.7,99,0.00,,,0.00,meteobridge,2014-09-18 12:14:00,
2014-09-18 08:19:00,51.3,50.9,30.09,NNW,337,2.0,2.7,99,0.00,,,0.00,meteobridge,2014-09-18 12:19:00,
2014-09-18 08:24:00,51.8,51.4,30.10,North,0,2.7,4.7,99,0.00,,,0.00,meteobridge,2014-09-18 12:24:00,
2014-09-18 08:29:00,52.2,51.8,30.09,NNW,337,2.7,4.0,99,0.00,,,0.00,meteobridge,2014-09-18 12:29:00,
2014-09-18 08:34:00,53.1,52.7,30.10,NNW,337,3.1,3.6,99,0.00,,,0.00,meteobridge,2014-09-18 12:34:00,
2014-09-18 08:40:00,53.1,52.7,30.10,NE,45,3.6,4.7,99,0.00,,,0.00,meteobridge,2014-09-18 12:40:00,
2014-09-18 08:45:00,54.0,53.6,30.10,NNE,22,3.6,4.0,99,0.00,,,0.00,meteobridge,2014-09-18 12:45:00,
2014-09-18 08:50:00,54.9,54.5,30.10,North,0,2.7,2.7,99,0.00,,,0.00,meteobridge,2014-09-18 12:50:00,
2014-09-18 08:56:00,56.3,55.8,30.10,NW,315,1.1,2.0,98,0.00,,,0.00,meteobridge,2014-09-18 12:56:00,
2014-09-18 09:01:00,57.6,56.1,30.09,ENE,67,2.0,5.6,95,0.00,,,0.00,meteobridge,2014-09-18 13:01:00,
2014-09-18 09:06:00,57.6,55.0,30.09,WNW,292,1.1,4.7,91,0.00,,,0.00,meteobridge,2014-09-18 13:06:00,
2014-09-18 09:12:00,57.6,55.2,30.10,NW,315,2.7,4.0,92,0.00,,,0.00,meteobridge,2014-09-18 13:12:00,
2014-09-18 09:16:00,58.3,55.4,30.10,NNE,22,3.6,4.7,90,0.00,,,0.00,meteobridge,2014-09-18 13:16:00,
2014-09-18 09:21:00,58.5,55.6,30.10,North,0,3.1,5.1,90,0.00,,,0.00,meteobridge,2014-09-18 13:21:00,
2014-09-18 09:27:00,59.9,56.3,30.10,West,270,1.6,2.0,88,0.00,,,0.00,meteobridge,2014-09-18 13:27:00,
2014-09-18 09:32:00,60.3,56.3,30.10,WNW,292,3.1,3.1,87,0.00,,,0.00,meteobridge,2014-09-18 13:32:00,
2014-09-18 09:37:00,60.4,56.5,30.10,NNW,337,2.7,3.6,87,0.00,,,0.00,meteobridge,2014-09-18 13:37:00,
2014-09-18 09:42:00,60.3,56.3,30.11,ENE,67,2.0,4.7,87,0.00,,,0.00,meteobridge,2014-09-18 13:42:00,
2014-09-18 09:48:00,61.0,56.1,30.11,NNE,22,1.6,5.1,84,0.00,,,0.00,meteobridge,2014-09-18 13:48:00,
2014-09-18 09:53:00,61.7,56.8,30.11,NNE,22,3.6,5.6,84,0.00,,,0.00,meteobridge,2014-09-18 13:53:00,
2014-09-18 09:58:00,61.2,55.9,30.10,NW,315,2.0,5.1,83,0.00,,,0.00,meteobridge,2014-09-18 13:58:00,
2014-09-18 10:03:00,62.2,57.0,30.10,SSE,157,1.1,1.6,83,0.00,,,0.00,meteobridge,2014-09-18 14:03:00,
2014-09-18 10:08:00,62.1,56.5,30.11,NW,315,3.6,4.0,82,0.00,,,0.00,meteobridge,2014-09-18 14:08:00,
2014-09-18 10:13:00,62.1,56.5,30.10,WNW,292,3.6,5.6,82,0.00,,,0.00,meteobridge,2014-09-18 14:13:00,
2014-09-18 10:19:00,63.1,57.2,30.11,ESE,112,2.0,4.0,81,0.00,,,0.00,meteobridge,2014-09-18 14:19:00,
2014-09-18 10:24:00,63.0,56.3,30.11,NNE,22,6.7,6.7,79,0.00,,,0.00,meteobridge,2014-09-18 14:24:00,
2014-09-18 10:29:00,63.9,57.2,30.10,NW,315,4.0,4.0,79,0.00,,,0.00,meteobridge,2014-09-18 14:29:00,
2014-09-18 10:34:00,63.7,56.3,30.11,NW,315,6.7,6.7,77,0.00,,,0.00,meteobridge,2014-09-18 14:34:00,
2014-09-18 10:40:00,63.7,56.7,30.11,NW,315,2.7,6.3,78,0.00,,,0.00,meteobridge,2014-09-18 14:40:00,
2014-09-18 10:45:00,63.9,56.8,30.11,NNW,337,8.3,8.7,78,0.00,,,0.00,meteobridge,2014-09-18 14:45:00,
2014-09-18 10:51:00,63.9,56.8,30.11,ENE,67,3.6,3.6,78,0.00,,,0.00,meteobridge,2014-09-18 14:51:00,
2014-09-18 10:56:00,63.9,56.8,30.11,NE,45,3.6,6.3,78,0.00,,,0.00,meteobridge,2014-09-18 14:56:00,
2014-09-18 11:01:00,63.5,56.8,30.12,West,270,3.1,6.7,79,0.00,,,0.00,meteobridge,2014-09-18 15:01:00,
2014-09-18 11:07:00,64.8,58.1,30.12,NE,45,6.3,6.3,79,0.00,,,0.00,meteobridge,2014-09-18 15:07:00,
2014-09-18 11:12:00,63.5,56.8,30.11,ESE,112,4.0,4.0,79,0.00,,,0.00,meteobridge,2014-09-18 15:12:00,
2014-09-18 11:17:00,64.6,57.2,30.12,West,270,4.7,6.3,77,0.00,,,0.00,meteobridge,2014-09-18 15:17:00,
2014-09-18 11:22:00,62.2,55.6,30.12,NW,315,1.6,5.1,79,0.00,,,0.00,meteobridge,2014-09-18 15:22:00,
2014-09-18 11:28:00,62.1,55.8,30.13,NE,45,3.1,6.3,80,0.00,,,0.00,meteobridge,2014-09-18 15:28:00,
2014-09-18 11:33:00,64.8,57.0,30.12,NE,45,6.7,6.7,76,0.00,,,0.00,meteobridge,2014-09-18 15:33:00,
2014-09-18 11:38:00,63.0,55.6,30.13,East,90,2.7,4.0,77,0.00,,,0.00,meteobridge,2014-09-18 15:38:00,
2014-09-18 11:43:00,63.1,55.4,30.13,NNW,337,4.0,5.6,76,0.00,,,0.00,meteobridge,2014-09-18 15:43:00,
2014-09-18 11:48:00,63.5,55.8,30.13,East,90,3.1,5.6,76,0.00,,,0.00,meteobridge,2014-09-18 15:48:00,
2014-09-18 11:53:00,64.0,55.6,30.13,NNW,337,5.6,5.6,74,0.00,,,0.00,meteobridge,2014-09-18 15:53:00,
2014-09-18 11:58:00,63.9,55.0,30.13,ENE,67,2.7,5.6,73,0.00,,,0.00,meteobridge,2014-09-18 15:58:00,
2014-09-18 12:04:00,66.4,56.7,30.13,NNW,337,1.6,3.6,71,0.00,,,0.00,meteobridge,2014-09-18 16:04:00,
2014-09-18 12:09:00,65.7,55.9,30.13,NNW,337,4.7,4.7,71,0.00,,,0.00,meteobridge,2014-09-18 16:09:00,
2014-09-18 12:14:00,64.0,55.2,30.13,NNW,337,7.8,7.8,73,0.00,,,0.00,meteobridge,2014-09-18 16:14:00,
2014-09-18 12:20:00,63.9,55.0,30.13,NE,45,4.0,4.0,73,0.00,,,0.00,meteobridge,2014-09-18 16:20:00,
2014-09-18 12:25:00,64.0,54.9,30.13,NNW,337,3.6,8.7,72,0.00,,,0.00,meteobridge,2014-09-18 16:25:00,
2014-09-18 12:30:00,63.7,54.5,30.14,NW,315,4.7,4.7,72,0.00,,,0.00,meteobridge,2014-09-18 16:30:00,
2014-09-18 12:35:00,64.0,54.9,30.13,NNE,22,4.7,7.2,72,0.00,,,0.00,meteobridge,2014-09-18 16:35:00,
2014-09-18 12:40:00,64.6,55.0,30.13,NE,45,5.6,6.3,71,0.00,,,0.00,meteobridge,2014-09-18 16:40:00,
2014-09-18 12:45:00,64.4,54.9,30.13,West,270,3.1,8.3,71,0.00,,,0.00,meteobridge,2014-09-18 16:45:00,
2014-09-18 12:50:00,63.9,54.3,30.14,West,270,5.1,6.7,71,0.00,,,0.00,meteobridge,2014-09-18 16:50:00,
2014-09-18 12:56:00,64.4,54.3,30.13,East,90,4.7,5.6,70,0.00,,,0.00,meteobridge,2014-09-18 16:56:00,
2014-09-18 13:01:00,63.9,54.3,30.14,NNW,337,2.0,4.0,71,0.00,,,0.00,meteobridge,2014-09-18 17:01:00,
2014-09-18 13:06:00,63.7,54.1,30.14,WNW,292,2.7,4.7,71,0.00,,,0.00,meteobridge,2014-09-18 17:06:00,
2014-09-18 13:11:00,64.8,54.7,30.13,NNW,337,3.6,4.0,70,0.00,,,0.00,meteobridge,2014-09-18 17:11:00,
2014-09-18 13:16:00,66.6,55.6,30.13,NNE,22,1.6,4.0,68,0.00,,,0.00,meteobridge,2014-09-18 17:16:00,
2014-09-18 13:22:00,66.6,55.2,30.13,NW,315,2.7,4.7,67,0.00,,,0.00,meteobridge,2014-09-18 17:22:00,
2014-09-18 13:27:00,65.7,54.3,30.13,NNE,22,4.7,5.1,67,0.00,,,0.00,meteobridge,2014-09-18 17:27:00,
2014-09-18 13:32:00,65.7,54.3,30.13,South,180,2.7,2.7,67,0.00,,,0.00,meteobridge,2014-09-18 17:32:00,
2014-09-18 13:37:00,67.5,54.0,30.13,West,270,3.1,6.7,62,0.00,,,0.00,meteobridge,2014-09-18 17:37:00,
2014-09-18 13:40:00,68.4,54.9,30.13,NW,315,3.1,4.7,62,0.00,,,0.00,meteobridge,2014-09-18 17:40:00,
2014-09-18 13:45:00,65.7,53.6,30.13,NE,45,4.0,6.7,65,0.00,,,0.00,meteobridge,2014-09-18 17:45:00,
2014-09-18 13:50:00,64.6,54.5,30.14,NW,315,6.3,7.2,70,0.00,,,0.00,meteobridge,2014-09-18 17:50:00,
2014-09-18 13:55:00,63.9,55.0,30.14,NE,45,1.1,5.6,73,0.00,,,0.00,meteobridge,2014-09-18 17:55:00,
2014-09-18 14:01:00,64.0,55.2,30.14,NE,45,4.0,5.1,73,0.00,,,0.00,meteobridge,2014-09-18 18:01:00,
2014-09-18 14:06:00,63.7,54.9,30.14,NNW,337,4.7,6.7,73,0.00,,,0.00,meteobridge,2014-09-18 18:06:00,
2014-09-18 14:11:00,63.5,54.7,30.14,NW,315,2.7,3.6,73,0.00,,,0.00,meteobridge,2014-09-18 18:11:00,
2014-09-18 14:16:00,63.9,55.0,30.14,North,0,2.7,5.1,73,0.00,,,0.00,meteobridge,2014-09-18 18:16:00,
2014-09-18 14:21:00,64.4,55.2,30.14,WNW,292,3.1,4.7,72,0.00,,,0.00,meteobridge,2014-09-18 18:21:00,
2014-09-18 14:26:00,64.0,54.9,30.14,WNW,292,3.1,3.6,72,0.00,,,0.00,meteobridge,2014-09-18 18:26:00,
2014-09-18 14:31:00,63.9,54.7,30.13,NNE,22,5.6,5.6,72,0.00,,,0.00,meteobridge,2014-09-18 18:31:00,
2014-09-18 14:36:00,64.0,55.2,30.13,NNE,22,3.1,4.7,73,0.00,,,0.00,meteobridge,2014-09-18 18:36:00,
2014-09-18 14:41:00,65.7,55.2,30.13,ESE,112,2.0,4.0,69,0.00,,,0.00,meteobridge,2014-09-18 18:41:00,
2014-09-18 14:46:00,65.8,55.4,30.13,ENE,67,4.0,6.3,69,0.00,,,0.00,meteobridge,2014-09-18 18:46:00,
2014-09-18 14:51:00,64.4,55.2,30.13,ENE,67,6.7,6.7,72,0.00,,,0.00,meteobridge,2014-09-18 18:51:00,
2014-09-18 14:57:00,66.6,56.1,30.13,ENE,67,6.3,6.3,69,0.00,,,0.00,meteobridge,2014-09-18 18:57:00,
2014-09-18 15:02:00,65.5,55.4,30.13,East,90,6.7,6.7,70,0.00,,,0.00,meteobridge,2014-09-18 19:02:00,
2014-09-18 15:07:00,64.6,55.0,30.13,NW,315,5.1,6.3,71,0.00,,,0.00,meteobridge,2014-09-18 19:07:00,
2014-09-18 15:12:00,64.6,55.4,30.14,West,270,2.7,3.6,72,0.00,,,0.00,meteobridge,2014-09-18 19:12:00,
2014-09-18 15:18:00,63.0,54.5,30.13,NNE,22,5.1,5.1,74,0.00,,,0.00,meteobridge,2014-09-18 19:18:00,
2014-09-18 15:23:00,64.4,54.9,30.13,NE,45,3.6,3.6,71,0.00,,,0.00,meteobridge,2014-09-18 19:23:00,
2014-09-18 15:28:00,63.9,55.4,30.13,SSW,202,3.1,4.0,74,0.00,,,0.00,meteobridge,2014-09-18 19:28:00,
2014-09-18 15:34:00,63.0,54.9,30.13,North,0,1.6,4.0,75,0.00,,,0.00,meteobridge,2014-09-18 19:34:00,
2014-09-18 15:39:00,64.0,55.6,30.13,NNW,337,6.7,6.7,74,0.00,,,0.00,meteobridge,2014-09-18 19:39:00,
2014-09-18 15:44:00,63.1,54.7,30.13,ENE,67,1.1,4.7,74,0.00,,,0.00,meteobridge,2014-09-18 19:44:00,
2014-09-18 15:49:00,63.9,55.0,30.13,NNE,22,5.1,6.3,73,0.00,,,0.00,meteobridge,2014-09-18 19:49:00,
2014-09-18 15:55:00,62.2,53.8,30.13,West,270,2.7,5.6,74,0.00,,,0.00,meteobridge,2014-09-18 19:55:00,
2014-09-18 16:00:00,64.6,55.0,30.13,NNE,22,4.0,7.8,71,0.00,,,0.00,meteobridge,2014-09-18 20:00:00,
2014-09-18 16:05:00,63.9,54.0,30.13,NNE,22,3.1,6.3,70,0.00,,,0.00,meteobridge,2014-09-18 20:05:00,
2014-09-18 16:10:00,64.9,54.9,30.12,NNE,22,6.3,6.7,70,0.00,,,0.00,meteobridge,2014-09-18 20:10:00,
2014-09-18 16:16:00,65.8,55.0,30.12,WNW,292,2.7,6.7,68,0.00,,,0.00,meteobridge,2014-09-18 20:16:00,
2014-09-18 16:21:00,64.6,55.0,30.12,East,90,3.1,5.6,71,0.00,,,0.00,meteobridge,2014-09-18 20:21:00,
2014-09-18 16:26:00,63.7,54.1,30.12,NNW,337,7.2,7.2,71,0.00,,,0.00,meteobridge,2014-09-18 20:26:00,
2014-09-18 16:31:00,63.9,54.0,30.12,WNW,292,4.7,5.1,70,0.00,,,0.00,meteobridge,2014-09-18 20:31:00,
2014-09-18 16:37:00,64.9,54.5,30.12,NNW,337,4.0,5.6,69,0.00,,,0.00,meteobridge,2014-09-18 20:37:00,
2014-09-18 16:42:00,65.8,54.5,30.13,North,0,3.6,6.7,67,0.00,,,0.00,meteobridge,2014-09-18 20:42:00,
2014-09-18 16:47:00,64.8,54.3,30.12,NW,315,3.1,6.7,69,0.00,,,0.00,meteobridge,2014-09-18 20:47:00,
2014-09-18 16:52:00,65.7,54.9,30.12,North,0,4.7,7.2,68,0.00,,,0.00,meteobridge,2014-09-18 20:52:00,
2014-09-18 16:58:00,64.9,54.1,30.11,East,90,6.3,6.7,68,0.00,,,0.00,meteobridge,2014-09-18 20:58:00,
2014-09-18 17:03:00,64.6,53.8,30.12,NW,315,3.6,4.7,68,0.00,,,0.00,meteobridge,2014-09-18 21:03:00,
2014-09-18 17:08:00,64.0,53.6,30.12,NW,315,5.1,8.3,69,0.00,,,0.00,meteobridge,2014-09-18 21:08:00,
2014-09-18 17:13:00,63.9,53.1,30.12,North,0,8.3,8.3,68,0.00,,,0.00,meteobridge,2014-09-18 21:13:00,
2014-09-18 17:18:00,64.9,52.9,30.11,ESE,112,3.1,6.7,65,0.00,,,0.00,meteobridge,2014-09-18 21:18:00,
2014-09-18 17:23:00,63.9,53.1,30.12,NNW,337,4.7,8.7,68,0.00,,,0.00,meteobridge,2014-09-18 21:23:00,
2014-09-18 17:28:00,64.0,53.2,30.13,NE,45,5.6,5.6,68,0.00,,,0.00,meteobridge,2014-09-18 21:28:00,
2014-09-18 17:33:00,63.7,52.9,30.12,ENE,67,5.1,6.7,68,0.00,,,0.00,meteobridge,2014-09-18 21:33:00,
2014-09-18 17:38:00,62.8,52.5,30.13,WNW,292,7.8,7.8,69,0.00,,,0.00,meteobridge,2014-09-18 21:38:00,
2014-09-18 17:43:00,63.0,52.2,30.12,NW,315,8.3,8.3,68,0.00,,,0.00,meteobridge,2014-09-18 21:43:00,
2014-09-18 17:48:00,63.0,52.7,30.12,NW,315,3.1,5.1,69,0.00,,,0.00,meteobridge,2014-09-18 21:48:00,
2014-09-18 17:54:00,61.2,52.0,30.13,East,90,3.1,5.6,72,0.00,,,0.00,meteobridge,2014-09-18 21:54:00,
2014-09-18 17:59:00,63.0,53.1,30.12,NE,45,4.0,4.0,70,0.00,,,0.00,meteobridge,2014-09-18 21:59:00,
2014-09-18 18:04:00,62.2,52.3,30.13,WNW,292,3.6,5.6,70,0.00,,,0.00,meteobridge,2014-09-18 22:04:00,
2014-09-18 18:10:00,61.2,51.6,30.13,ESE,112,3.6,5.6,71,0.00,,,0.00,meteobridge,2014-09-18 22:10:00,
2014-09-18 18:15:00,61.2,51.6,30.12,ESE,112,1.6,2.7,71,0.00,,,0.00,meteobridge,2014-09-18 22:15:00,
2014-09-18 18:20:00,61.0,52.0,30.13,ENE,67,2.7,4.0,72,0.00,,,0.00,meteobridge,2014-09-18 22:20:00,
2014-09-18 18:25:00,60.8,51.8,30.13,WNW,292,1.1,3.6,72,0.00,,,0.00,meteobridge,2014-09-18 22:25:00,
2014-09-18 18:31:00,60.4,51.4,30.13,NE,45,1.6,2.0,72,0.00,,,0.00,meteobridge,2014-09-18 22:31:00,
2014-09-18 18:36:00,60.3,51.3,30.13,NE,45,2.7,4.0,72,0.00,,,0.00,meteobridge,2014-09-18 22:36:00,
2014-09-18 18:41:00,59.9,51.3,30.13,ENE,67,2.0,2.7,73,0.00,,,0.00,meteobridge,2014-09-18 22:41:00,
2014-09-18 18:46:00,59.4,50.7,30.13,NE,45,2.7,4.7,73,0.00,,,0.00,meteobridge,2014-09-18 22:46:00,
2014-09-18 18:48:00,59.4,51.1,30.13,NNE,22,0.0,2.7,74,0.00,,,0.00,meteobridge,2014-09-18 22:48:00,
2014-09-18 18:53:00,60.1,51.4,30.14,NE,45,0.0,4.0,73,0.00,,,0.00,meteobridge,2014-09-18 22:53:00,
2014-09-18 18:58:00,59.4,50.7,30.14,NNE,22,1.6,3.1,73,0.00,,,0.00,meteobridge,2014-09-18 22:58:00,
2014-09-18 19:04:00,59.0,50.7,30.15,NNW,337,6.3,6.3,74,0.00,,,0.00,meteobridge,2014-09-18 23:04:00,
2014-09-18 19:09:00,58.1,50.2,30.13,NNE,22,2.7,5.1,75,0.00,,,0.00,meteobridge,2014-09-18 23:09:00,
2014-09-18 19:14:00,57.4,49.5,30.14,ENE,67,4.0,5.1,75,0.00,,,0.00,meteobridge,2014-09-18 23:14:00,
2014-09-18 19:19:00,56.7,49.1,30.14,NE,45,2.7,5.1,76,0.00,,,0.00,meteobridge,2014-09-18 23:19:00,
2014-09-18 19:25:00,55.9,48.9,30.13,South,180,2.0,4.7,77,0.00,,,0.00,meteobridge,2014-09-18 23:25:00,
2014-09-18 19:30:00,55.6,48.6,30.14,North,0,3.1,4.7,77,0.00,,,0.00,meteobridge,2014-09-18 23:30:00,
2014-09-18 19:35:00,54.9,48.2,30.15,ENE,67,3.6,4.7,78,0.00,,,0.00,meteobridge,2014-09-18 23:35:00,
2014-09-18 19:39:00,54.5,48.2,30.14,NNE,22,1.6,3.6,79,0.00,,,0.00,meteobridge,2014-09-18 23:39:00,
2014-09-18 19:44:00,53.8,47.8,30.15,ENE,67,4.7,4.7,80,0.00,,,0.00,meteobridge,2014-09-18 23:44:00,
2014-09-18 19:50:00,53.6,47.8,30.15,ESE,112,3.6,3.6,81,0.00,,,0.00,meteobridge,2014-09-18 23:50:00,
2014-09-18 19:55:00,53.1,47.3,30.15,West,270,2.7,5.1,81,0.00,,,0.00,meteobridge,2014-09-18 23:55:00,
2014-09-18 20:00:00,52.7,47.1,30.15,NE,45,1.1,3.6,81,0.00,,,0.00,meteobridge,2014-09-19 00:00:00,
2014-09-18 20:05:00,52.3,46.9,30.16,SE,135,2.7,2.7,82,0.00,,,0.00,meteobridge,2014-09-19 00:05:00,
2014-09-18 20:11:00,52.0,46.9,30.16,West,270,2.7,2.7,83,0.00,,,0.00,meteobridge,2014-09-19 00:11:00,
2014-09-18 20:12:00,51.4,46.8,30.16,ESE,112,3.1,3.6,84,0.00,,,0.00,meteobridge,2014-09-19 00:12:00,
2014-09-18 20:17:00,51.4,46.8,30.16,NE,45,0.0,2.7,84,0.00,,,0.00,meteobridge,2014-09-19 00:17:00,
2014-09-18 20:23:00,51.1,46.8,30.17,NE,45,0.0,0.0,85,0.00,,,0.00,meteobridge,2014-09-19 00:23:00,
2014-09-18 20:28:00,50.4,46.4,30.17,East,90,2.0,3.1,86,0.00,,,0.00,meteobridge,2014-09-19 00:28:00,
2014-09-18 20:33:00,50.4,46.4,30.16,NNE,22,2.0,2.0,86,0.00,,,0.00,meteobridge,2014-09-19 00:33:00,
2014-09-18 20:38:00,50.0,46.0,30.17,ESE,112,0.0,0.0,86,0.00,,,0.00,meteobridge,2014-09-19 00:38:00,
2014-09-18 20:44:00,49.5,45.7,30.18,ENE,67,0.0,1.6,87,0.00,,,0.00,meteobridge,2014-09-19 00:44:00,
2014-09-18 20:49:00,49.3,45.5,30.18,North,0,0.0,1.1,87,0.00,,,0.00,meteobridge,2014-09-19 00:49:00,
2014-09-18 20:54:00,48.7,45.3,30.18,SSE,157,1.6,3.6,88,0.00,,,0.00,meteobridge,2014-09-19 00:54:00,